Weather History for Fort Payne, AL

Change the Weather History Date:

Tuesday, April 23, 2013

  Actual Average (KRMG) Record (KRMG)
Temperature  
Mean Temperature 61 °F 62 °F  
Max Temperature 71 °F 75 °F 87 °F (2004)
Min Temperature 51 °F 49 °F 39 °F (1998)
Degree Days  
Heating Degree Days 4 5  
Month to date heating degree days 160  
Since 1 July heating degree days 3187  
Cooling Degree Days 0 1  
Month to date cooling degree days 19  
Year to date cooling degree days 23  
Growing Degree Days 11 (Base 50)    
Moisture  
Dew Point 39 °F    
Average Humidity 46    
Maximum Humidity 82    
Minimum Humidity 33    
Precipitation  
Precipitation 0.08 in 0.16 in 0.12 in (1998)
Month to date precipitation 2.94  
Year to date precipitation 17.58  
Sea Level Pressure  
Sea Level Pressure 30.13 in    
Wind  
Wind Speed 3 mph (SE)    
Max Wind Speed 12 mph    
Max Gust Speed 17 mph    
Visibility 10 miles    
Events      
T = Trace of Precipitation, MM = Missing Value Source: NWS Daily Summary

Daily Weather History Graph

Daily Weather History Graph

Search for Another Location

Airport:

Trip Planner

Search our weather history database for the weather conditions in past years. The results will help you decide how hot, cold, wet, or windy it might be!

Date:

Astronomy

Apr. 23, 2013 Rise Set
Actual Time 6:01 AM CDT 7:21 PM CDT
Civil Twilight 5:35 AM CDT 7:47 PM CDT
Nautical Twilight 5:03 AM CDT 8:19 PM CDT
Astronomical Twilight 4:30 AM CDT 8:52 PM CDT
Moon 5:19 PM CDT (4/23) 4:23 AM CDT (4/23)
Length of Visible Light 14h 12m
Length of Day
13h 19m
Waxing Gibbous, 94% of the Moon is Illuminated
Apr 23
Waxing Gibbous
Apr 25
Full
May 2
Last Quarter
May 9
New
May 17
First Quarter

Hourly Weather History & Observations

Time (CDT) Temp. Dew Point Humidity Pressure Visibility Wind Dir Wind Speed Gust Speed Precip Events Conditions
12:15 AM 59.0 °F 42.8 °F 55% 30.16 in 10.0 mi Calm Calm - N/A   Clear
12:35 AM 59.0 °F 42.8 °F 55% 30.16 in 10.0 mi ESE 9.2 mph - N/A   Clear
12:55 AM 59.0 °F 41.0 °F 51% 30.16 in 10.0 mi ESE 9.2 mph - N/A   Clear
1:15 AM 57.2 °F 41.0 °F 55% 30.16 in 10.0 mi ESE 5.8 mph - N/A   Clear
1:35 AM 57.2 °F 39.2 °F 51% 30.16 in 10.0 mi Calm Calm - N/A   Clear
1:55 AM 55.4 °F 37.4 °F 51% 30.16 in 10.0 mi ESE 3.5 mph - N/A   Clear
2:15 AM 55.4 °F 37.4 °F 51% 30.16 in 10.0 mi East 3.5 mph - N/A   Scattered Clouds
2:35 AM 55.4 °F 37.4 °F 51% 30.16 in 10.0 mi Calm Calm - N/A   Scattered Clouds
2:55 AM 53.6 °F 35.6 °F 51% 30.16 in 10.0 mi Calm Calm - N/A   Clear
3:15 AM 53.6 °F 33.8 °F 47% 30.17 in 10.0 mi Calm Calm - N/A   Clear
3:35 AM 53.6 °F 33.8 °F 47% 30.17 in 10.0 mi Calm Calm - N/A   Clear
3:55 AM 53.6 °F 32.0 °F 44% 30.16 in 10.0 mi Calm Calm - N/A   Clear
4:15 AM 53.6 °F 32.0 °F 44% 30.16 in 10.0 mi ENE 5.8 mph - N/A   Clear
4:35 AM 53.6 °F 32.0 °F 44% 30.16 in 10.0 mi West 3.5 mph - N/A   Clear
4:55 AM 53.6 °F 32.0 °F 44% 30.16 in 10.0 mi North 4.6 mph - N/A   Clear
5:15 AM 53.6 °F 32.0 °F 44% 30.15 in 10.0 mi ENE 3.5 mph - N/A   Clear
5:35 AM 53.6 °F 32.0 °F 44% 30.16 in 10.0 mi East 3.5 mph - N/A   Scattered Clouds
5:55 AM 51.8 °F 32.0 °F 47% 30.17 in 10.0 mi North 4.6 mph - N/A   Scattered Clouds
6:15 AM 53.6 °F 30.2 °F 41% 30.17 in 10.0 mi Calm Calm - N/A   Mostly Cloudy
6:35 AM 53.6 °F 30.2 °F 41% 30.17 in 10.0 mi North 3.5 mph - N/A   Overcast
6:55 AM 53.6 °F 30.2 °F 41% 30.17 in 10.0 mi North 4.6 mph - N/A   Overcast
7:15 AM 53.6 °F 30.2 °F 41% 30.17 in 10.0 mi ENE 3.5 mph - N/A   Scattered Clouds
7:35 AM 55.4 °F 30.2 °F 38% 30.18 in 10.0 mi East 4.6 mph - N/A   Scattered Clouds
7:55 AM 55.4 °F 30.2 °F 38% 30.18 in 10.0 mi East 8.1 mph - N/A   Clear
8:15 AM 55.4 °F 30.2 °F 38% 30.19 in 10.0 mi Calm Calm - N/A   Clear
8:35 AM 57.2 °F 30.2 °F 36% 30.20 in 10.0 mi Calm Calm - N/A   Clear
8:55 AM 57.2 °F 32.0 °F 38% 30.20 in 10.0 mi East 6.9 mph - N/A   Scattered Clouds
9:15 AM 59.0 °F 32.0 °F 36% 30.20 in 10.0 mi ESE 3.5 mph - 0.03 in   Scattered Clouds
9:35 AM 60.8 °F 32.0 °F 34% 30.20 in 10.0 mi East 11.5 mph 17.3 mph 0.03 in   Mostly Cloudy
9:55 AM 60.8 °F 32.0 °F 34% 30.21 in 10.0 mi Calm Calm - 0.03 in   Overcast
10:15 AM 60.8 °F 32.0 °F 34% 30.21 in 10.0 mi Calm Calm - N/A   Mostly Cloudy
10:35 AM 62.6 °F 33.8 °F 34% 30.20 in 10.0 mi Calm Calm - N/A   Scattered Clouds
10:55 AM 62.6 °F 33.8 °F 34% 30.19 in 10.0 mi Calm Calm - N/A   Scattered Clouds
11:15 AM 64.4 °F 35.6 °F 34% 30.19 in 10.0 mi Calm Calm - N/A   Scattered Clouds
11:35 AM 64.4 °F 35.6 °F 34% 30.19 in 10.0 mi Calm Calm - N/A   Scattered Clouds
11:55 AM 66.2 °F 37.4 °F 35% 30.17 in 10.0 mi Calm Calm - N/A   Scattered Clouds
12:15 PM 68.0 °F 39.2 °F 35% 30.17 in 10.0 mi Calm Calm - N/A   Clear
12:35 PM 68.0 °F 37.4 °F 33% 30.15 in 10.0 mi Calm Calm - N/A   Clear
12:55 PM 68.0 °F 39.2 °F 35% 30.14 in 10.0 mi ESE 9.2 mph - N/A   Clear
1:15 PM 69.8 °F 41.0 °F 35% 30.14 in 10.0 mi SE 3.5 mph - N/A   Clear
1:35 PM 69.8 °F 41.0 °F 35% 30.13 in 10.0 mi SW 6.9 mph - N/A   Clear
1:55 PM 69.8 °F 41.0 °F 35% 30.13 in 10.0 mi SSW 4.6 mph - N/A   Clear
2:15 PM 71.6 °F 42.8 °F 35% 30.12 in 10.0 mi South 3.5 mph - N/A   Scattered Clouds
2:35 PM 71.6 °F 41.0 °F 33% 30.11 in 10.0 mi SE 9.2 mph - N/A   Scattered Clouds
2:55 PM 71.6 °F 41.0 °F 33% 30.10 in 10.0 mi SSW 4.6 mph - N/A   Clear
3:15 PM 71.6 °F 41.0 °F 33% 30.10 in 10.0 mi SW 5.8 mph - N/A   Clear
3:35 PM 71.6 °F 41.0 °F 33% 30.09 in 10.0 mi Calm Calm - N/A   Clear
3:55 PM 71.6 °F 41.0 °F 33% 30.08 in 10.0 mi Calm Calm - N/A   Clear
4:15 PM 71.6 °F 41.0 °F 33% 30.07 in 10.0 mi Calm Calm - N/A   Clear
4:35 PM 71.6 °F 41.0 °F 33% 30.06 in 10.0 mi South 6.9 mph - N/A   Clear
4:55 PM 71.6 °F 41.0 °F 33% 30.05 in 10.0 mi South 8.1 mph - N/A   Clear
5:15 PM 71.6 °F 41.0 °F 33% 30.05 in 10.0 mi Calm Calm - N/A   Clear
5:35 PM 71.6 °F 41.0 °F 33% 30.05 in 10.0 mi South 8.1 mph - N/A   Clear
5:55 PM 71.6 °F 41.0 °F 33% 30.05 in 10.0 mi South 5.8 mph - N/A   Clear
6:15 PM 71.6 °F 42.8 °F 35% 30.05 in 10.0 mi Calm Calm - N/A   Clear
6:35 PM 71.6 °F 42.8 °F 35% 30.04 in 10.0 mi South 6.9 mph - N/A   Clear
6:55 PM 69.8 °F 42.8 °F 38% 30.04 in 10.0 mi Calm Calm - N/A   Clear
7:15 PM 69.8 °F 44.6 °F 40% 30.05 in 10.0 mi Calm Calm - N/A   Clear
7:35 PM 66.2 °F 46.4 °F 49% 30.05 in 10.0 mi Calm Calm - N/A   Clear
7:55 PM 62.6 °F 48.2 °F 59% 30.05 in 10.0 mi Calm Calm - 0.05 in   Clear
8:15 PM 60.8 °F 50.0 °F 68% 30.06 in 10.0 mi Calm Calm - N/A   Clear
8:35 PM 59.0 °F 50.0 °F 72% 30.07 in 10.0 mi Calm Calm - N/A   Clear
8:55 PM 59.0 °F 48.2 °F 67% 30.07 in 10.0 mi Calm Calm - N/A   Clear
9:15 PM 57.2 °F 50.0 °F 77% 30.07 in 10.0 mi Calm Calm - N/A   Clear
9:35 PM 55.4 °F 48.2 °F 77% 30.08 in 10.0 mi Calm Calm - N/A   Clear
9:55 PM 55.4 °F 48.2 °F 77% 30.08 in 10.0 mi Calm Calm - N/A   Clear
10:15 PM 53.6 °F 48.2 °F 82% 30.07 in 10.0 mi Calm Calm - N/A   Clear
10:35 PM 53.6 °F 48.2 °F 82% 30.08 in 10.0 mi Calm Calm - N/A   Clear
10:55 PM 55.4 °F 48.2 °F 77% 30.08 in 10.0 mi Calm Calm - N/A   Clear
11:15 PM 53.6 °F 48.2 °F 82% 30.08 in 10.0 mi Calm Calm - N/A   Clear
11:35 PM 53.6 °F 46.4 °F 77% 30.09 in 10.0 mi Calm Calm - N/A   Clear
11:55 PM 53.6 °F 48.2 °F 82% 30.09 in 10.0 mi Calm Calm - N/A   Mostly Cloudy